This is the latest recevied weather packets stored in our database for station/object DL7AND-1. If no packets are shown the sender has not sent any weather packets the latest 10 day(s).
| Time | Temp. | Humidity | Pressure | Rain* | Wind** | Luminosity | Snow |
|---|---|---|---|---|---|---|---|
| 1777589498 | 14.44° C | - | 1019.4 hPa | 0 mm | - | - | - |
| 1777588386 | 14.44° C | - | 1019.5 hPa | 0 mm | - | - | - |
| 1777585610 | 15° C | - | 1019.6 hPa | 0 mm | - | - | - |
| 1777578408 | 16.67° C | - | 1019.4 hPa | 0 mm | - | - | - |
| 1777567628 | 18.89° C | - | 1018.9 hPa | 0 mm | - | - | - |
| 1777567032 | 18.89° C | - | 1019 hPa | 0 mm | - | - | - |
| 1777563096 | 18.89° C | - | 1019 hPa | 0 mm | - | - | - |
| 1777555032 | 18.33° C | - | 1020.2 hPa | 0 mm | - | - | - |
| 1777550856 | 17.78° C | - | 1020.8 hPa | 0 mm | - | - | - |
| 1777548120 | 17.78° C | - | 1021.2 hPa | 0 mm | - | - | - |
| 1777546604 | 17.78° C | - | 1021.4 hPa | 0 mm | - | - | - |
| 1777537608 | 16.11° C | - | 1022.8 hPa | 0 mm | - | - | - |
| 1777534584 | 15.56° C | - | 1023 hPa | 0 mm | - | - | - |
| 1777532520 | 16.67° C | - | 1023.1 hPa | 0 mm | - | - | - |
| 1777530984 | 17.22° C | - | 1023.1 hPa | 0 mm | - | - | - |
| 1777529228 | 19.44° C | - | 1022.9 hPa | 0 mm | - | - | - |
| 1777526204 | 20° C | - | 1022.7 hPa | 0 mm | - | - | - |
| 1777524984 | 17.22° C | - | 1022.5 hPa | 0 mm | - | - | - |
| 1777523784 | 12.22° C | - | 1022.5 hPa | 0 mm | - | - | - |
| 1777514808 | 8.89° C | - | 1021.9 hPa | 0 mm | - | - | - |
| 1777513608 | 8.89° C | - | 1021.9 hPa | 0 mm | - | - | - |
| 1777512120 | 9.44° C | - | 1021.8 hPa | 0 mm | - | - | - |
| 1777509432 | 9.44° C | - | 1021.9 hPa | 0 mm | - | - | - |
| 1777505496 | 10° C | - | 1021.9 hPa | 0 mm | - | - | - |
| 1777504920 | 10° C | - | 1022 hPa | 0 mm | - | - | - |
* Rain latest hour (hover to see other rain measurements)
** Current wind speed in m/s (hover to see current wind gust speed)